When you browse on this site, cookies collect data to enhance your experience and personalize the content and advertising you see.
Visit our Privacy Policy to learn more. By continuing to use the site, you agree to this use of cookies and data.
  • In France
  • List of Countries
  • For 7 days
  • Water Temperature
  • Satellite Maps
  • Weather Map
  • Weather Widgets
  • user-avatar
    Login

    Hourly Weather Graz

    Today, 18 June, Tuesday

    Time Temperature Precipitation Wind Pressure Humidity
    00:00 +19°C° 0.3 mm 1 mps 726 mmHg 90%
    01:00 +19°C° 0 mm 1 mps 726 mmHg 89%
    02:00 +19°C° 0.2 mm 1 mps 725 mmHg 89%
    03:00 +19°C° 0.2 mm 1 mps 725 mmHg 89%
    04:00 +19°C° 0.2 mm 1 mps 725 mmHg 89%
    05:00 +19°C° 0.1 mm 1 mps 725 mmHg 88%
    06:00 +18°C° 0.1 mm 0 mps 725 mmHg 87%
    07:00 +18°C° 0.1 mm 0 mps 726 mmHg 87%
    08:00 +19°C° 0.2 mm 0 mps 725 mmHg 86%
    09:00 +19°C° 0.2 mm 0 mps 725 mmHg 85%
    10:00 +19°C° 0.2 mm 0 mps 725 mmHg 84%
    11:00 +23°C° 0 mm 1 mps 725 mmHg 74%
    12:00 +25°C° 0 mm 1 mps 725 mmHg 65%
    13:00 +27°C° 0 mm 1 mps 725 mmHg 55%
    14:00 +27°C° 0 mm 1 mps 724 mmHg 55%
    15:00 +27°C° 0 mm 1 mps 724 mmHg 56%
    16:00 +27°C° 0 mm 2 mps 724 mmHg 56%
    17:00 +25°C° 0 mm 1 mps 724 mmHg 64%
    18:00 +24°C° 0 mm 1 mps 723 mmHg 72%
    19:00 +23°C° 0 mm 1 mps 723 mmHg 79%
    20:00 +22°C° 0.1 mm 1 mps 723 mmHg 83%
    21:00 +19°C° 0.1 mm 0 mps 723 mmHg 86%
    22:00 +18°C° 0.1 mm 0 mps 724 mmHg 89%
    23:00 +17°C° 0 mm 0 mps 723 mmHg 89%

    Tomorrow, 19 June, Wednesday

    Time Temperature Precipitation Wind Pressure Humidity
    00:00 +19°C° 0 mm 1 mps 723 mmHg 89%
    01:00 +18°C° 0 mm 1 mps 723 mmHg 89%
    02:00 +18°C° 0 mm 1 mps 723 mmHg 89%
    03:00 +18°C° 0 mm 1 mps 723 mmHg 89%
    04:00 +18°C° 0 mm 1 mps 723 mmHg 89%
    05:00 +20°C° 0 mm 1 mps 723 mmHg 84%
    06:00 +19°C° 0 mm 0 mps 723 mmHg 78%
    07:00 +21°C° 0 mm 0 mps 723 mmHg 73%
    08:00 +23°C° 0 mm 0 mps 723 mmHg 66%
    09:00 +27°C° 0 mm 1 mps 723 mmHg 59%
    10:00 +28°C° 0 mm 1 mps 723 mmHg 52%
    11:00 +29°C° 0.2 mm 1 mps 723 mmHg 51%
    12:00 +30°C° 0.2 mm 1 mps 722 mmHg 49%
    13:00 +30°C° 0.2 mm 1 mps 722 mmHg 48%
    14:00 +30°C° 0.6 mm 1 mps 722 mmHg 49%
    15:00 +30°C° 0.6 mm 1 mps 722 mmHg 50%
    16:00 +29°C° 0.6 mm 1 mps 722 mmHg 52%
    17:00 +28°C° 0.6 mm 1 mps 722 mmHg 60%
    18:00 +26°C° 0.6 mm 1 mps 721 mmHg 69%
    19:00 +24°C° 0.6 mm 2 mps 721 mmHg 77%
    20:00 +23°C° 0.8 mm 2 mps 722 mmHg 81%
    21:00 +21°C° 0.8 mm 1 mps 722 mmHg 85%
    22:00 +20°C° 0.8 mm 1 mps 722 mmHg 88%
    23:00 +18°C° 0 mm 2 mps 722 mmHg 87%

    Day after tomorrow, 20 June, Thursday

    Time Temperature Precipitation Wind Pressure Humidity
    00:00 +18°C° 0 mm 2 mps 722 mmHg 87%
    01:00 +17°C° 0 mm 2 mps 721 mmHg 86%
    02:00 +18°C° 0 mm 1 mps 721 mmHg 85%
    03:00 +18°C° 0 mm 1 mps 722 mmHg 84%
    04:00 +16°C° 0 mm 1 mps 722 mmHg 83%
    05:00 +19°C° 0 mm 1 mps 722 mmHg 78%
    06:00 +21°C° 0 mm 1 mps 722 mmHg 73%
    07:00 +22°C° 0 mm 1 mps 722 mmHg 69%
    08:00 +25°C° 0 mm 1 mps 722 mmHg 60%
    09:00 +27°C° 0 mm 1 mps 723 mmHg 52%
    10:00 +30°C° 0 mm 1 mps 723 mmHg 43%
    11:00 +30°C° 0 mm 1 mps 722 mmHg 41%
    12:00 +31°C° 0 mm 1 mps 722 mmHg 40%
    13:00 +31°C° 0 mm 2 mps 722 mmHg 38%
    14:00 +31°C° 0.1 mm 2 mps 721 mmHg 40%
    15:00 +31°C° 0.1 mm 2 mps 721 mmHg 42%
    16:00 +30°C° 0.1 mm 2 mps 721 mmHg 44%
    17:00 +29°C° 0.4 mm 2 mps 721 mmHg 55%
    18:00 +27°C° 0.4 mm 2 mps 721 mmHg 65%
    19:00 +25°C° 0.4 mm 1 mps 720 mmHg 75%
    20:00 +24°C° 0.9 mm 1 mps 721 mmHg 79%
    21:00 +22°C° 0.9 mm 1 mps 721 mmHg 84%
    22:00 +21°C° 0.9 mm 1 mps 721 mmHg 88%
    23:00 +20°C° 0.4 mm 1 mps 722 mmHg 89%

    21 June, Friday

    Time Temperature Precipitation Wind Pressure Humidity
    00:00 +19°C° 0.4 mm 2 mps 722 mmHg 90%
    01:00 +18°C° 0.4 mm 2 mps 722 mmHg 90%
    02:00 +18°C° 0 mm 2 mps 722 mmHg 91%
    03:00 +18°C° 0 mm 2 mps 722 mmHg 91%
    04:00 +17°C° 0 mm 2 mps 722 mmHg 91%
    05:00 +20°C° 0 mm 1 mps 722 mmHg 88%
    06:00 +21°C° 0 mm 1 mps 723 mmHg 86%
    07:00 +20°C° 0 mm 0 mps 723 mmHg 83%
    08:00 +23°C° 0.5 mm 1 mps 723 mmHg 80%
    09:00 +24°C° 0.5 mm 1 mps 723 mmHg 78%
    10:00 +25°C° 0.5 mm 1 mps 723 mmHg 76%
    11:00 +26°C° 1.1 mm 1 mps 723 mmHg 74%
    12:00 +26°C° 1.1 mm 1 mps 723 mmHg 73%
    13:00 +27°C° 1.1 mm 1 mps 723 mmHg 71%
    14:00 +27°C° 2 mm 1 mps 723 mmHg 72%
    15:00 +26°C° 2 mm 1 mps 723 mmHg 73%
    16:00 +26°C° 2 mm 1 mps 722 mmHg 74%
    17:00 +25°C° 0.9 mm 1 mps 722 mmHg 77%
    18:00 +24°C° 0.9 mm 1 mps 722 mmHg 81%
    19:00 +23°C° 0.9 mm 1 mps 722 mmHg 85%
    20:00 +22°C° 1 mm 1 mps 723 mmHg 87%
    21:00 +21°C° 1 mm 1 mps 723 mmHg 88%
    22:00 +20°C° 1 mm 1 mps 723 mmHg 90%
    23:00 +20°C° 0.8 mm 1 mps 724 mmHg 91%

    22 June, Saturday

    Time Temperature Precipitation Wind Pressure Humidity
    00:00 +20°C° 0.8 mm 1 mps 724 mmHg 91%
    01:00 +19°C° 0.8 mm 1 mps 724 mmHg 92%
    02:00 +19°C° 0.8 mm 1 mps 724 mmHg 92%
    03:00 +19°C° 0.8 mm 1 mps 724 mmHg 92%
    04:00 +19°C° 0.8 mm 1 mps 724 mmHg 92%
    05:00 +18°C° 0.4 mm 0 mps 724 mmHg 90%
    06:00 +19°C° 0.4 mm 0 mps 724 mmHg 88%
    07:00 +20°C° 0.4 mm 0 mps 725 mmHg 86%
    08:00 +21°C° 0.9 mm 0 mps 725 mmHg 83%
    09:00 +24°C° 0.9 mm 1 mps 725 mmHg 80%
    10:00 +25°C° 0.9 mm 1 mps 725 mmHg 77%
    11:00 +25°C° 2 mm 1 mps 725 mmHg 79%
    12:00 +25°C° 2 mm 1 mps 724 mmHg 81%
    13:00 +25°C° 2 mm 2 mps 724 mmHg 83%
    14:00 +24°C° 2.4 mm 2 mps 724 mmHg 84%
    15:00 +24°C° 2.4 mm 2 mps 724 mmHg 86%
    16:00 +24°C° 2.4 mm 2 mps 723 mmHg 87%
    17:00 +23°C° 1 mm 2 mps 723 mmHg 89%
    18:00 +22°C° 1 mm 1 mps 723 mmHg 90%
    19:00 +22°C° 1 mm 1 mps 723 mmHg 92%
    20:00 +21°C° 0.1 mm 1 mps 724 mmHg 93%
    21:00 +21°C° 0.1 mm 1 mps 724 mmHg 93%
    22:00 +20°C° 0.1 mm 1 mps 724 mmHg 94%
    23:00 +18°C° 0.1 mm 0 mps 724 mmHg 94%

    23 June, Sunday

    Time Temperature Precipitation Wind Pressure Humidity
    00:00 +18°C° 0.1 mm 0 mps 724 mmHg 94%
    01:00 +17°C° 0.1 mm 0 mps 724 mmHg 94%
    02:00 +17°C° 0 mm 0 mps 724 mmHg 94%
    03:00 +19°C° 0 mm 1 mps 724 mmHg 94%
    04:00 +18°C° 0 mm 1 mps 724 mmHg 94%
    05:00 +19°C° 0 mm 1 mps 725 mmHg 91%
    06:00 +21°C° 0 mm 1 mps 725 mmHg 89%
    07:00 +20°C° 0 mm 0 mps 725 mmHg 87%
    08:00 +24°C° 0 mm 1 mps 726 mmHg 77%
    09:00 +26°C° 0 mm 1 mps 726 mmHg 68%
    10:00 +28°C° 0 mm 1 mps 726 mmHg 59%
    11:00 +28°C° 0.2 mm 1 mps 726 mmHg 59%
    12:00 +28°C° 0.2 mm 1 mps 726 mmHg 59%
    13:00 +28°C° 0.2 mm 1 mps 726 mmHg 59%
    14:00 +28°C° 0.4 mm 1 mps 726 mmHg 61%
    15:00 +28°C° 0.4 mm 1 mps 726 mmHg 63%
    16:00 +28°C° 0.4 mm 1 mps 726 mmHg 65%
    17:00 +26°C° 0.6 mm 1 mps 726 mmHg 72%
    18:00 +25°C° 0.6 mm 1 mps 726 mmHg 79%
    19:00 +23°C° 0.6 mm 1 mps 726 mmHg 87%
    20:00 +22°C° 0.1 mm 1 mps 727 mmHg 89%
    21:00 +21°C° 0.1 mm 1 mps 727 mmHg 91%
    22:00 +18°C° 0.1 mm 0 mps 728 mmHg 93%
    23:00 +18°C° 0 mm 0 mps 728 mmHg 94%
    Show more